Location: Bocianicha
(51.5066°N, 19.2563°E)
Time: 14:01:47
(UTC+00:00)

Nadezhda 4 Rocket - Pass Details

Date: 15 June 2025
Orbit: 949 x 990 km, 82.9° (Epoch: 17 July)

Event Time Altitude Azimuth Distance (km) Brightness Sun altitude
Exits shadow 00:38:09 14° 206° (SSW) 2,402 5.4 -11.1°
Maximum altitude 00:43:27 61° 284° (WNW) 1,096 4.2 -10.7°
Drops below altitude 10° 00:49:41 10° 5° (N) 2,746 7.5 -10.2°
Sets 00:52:16 0° 9° (N) 3,703 8.5 -10.0°
